User: anonymous
Location: Unspecified
(0.0000°N, 0.0000°E)
Time: 12:24:04
(UTC+00:00)
Language:

STSS DEMO 1 (USA 208) - Orbit

View from above orbital plane
View from above orbital plane
View from above satellite
View from above satellite

Ground track
Ground track

The orbit data is extracted from the following two-line orbital elements,

1 35937U 09052A   14090.09633640 0.00000000  00000-0  00000-0 0    01
2 35937  57.9887 317.8741 0020464 169.2924 190.7076 12.79129170    02
Epoch (UTC): 31 March 2014 02:18:43
Eccentricity: 0.0020464
inclination: 57.9887°
perigee height: 1329 km
apogee height: 1361 km
right ascension of ascending node: 317.8741°
argument of perigee: 169.2924°
revolutions per day: 12.79129170
mean anomaly at epoch: 190.7076°
orbit number at epoch: 0

The dashed part of the orbit path shows where the satellite is in the earth's shadow,  

DLR